Find STARLINK-37476

NORAD ID: 68853 Int'l Des: 2026-094Q Owner: starlink Country: USA Constellation: starlink operational
LEOCIRCULARRETROGRADE

Live Position

Loading 3D Globe...

About STARLINK-37476

Description loading...

Upcoming Passes

Passes for default location (London). Set your location on the main map for personalized predictions.

Altitude History

Loading altitude history...

Two-Line Element Set

1 68853U 26094Q 26120.66670139 -.01715539 96368-3 -23422-2 0 9993
2 68853 97.2831 134.1635 0001377 86.7817 131.2765 16.06403201 1728
Epoch: Apr 30, 2026 • Age: 31 hours

Current Status

Altitude 273.6 km
Velocity 7.75 km/s
Sub-Earth Point 41.43°N, 71.3°W
Type internet

Most Searched